Starlink 30370

operational
NORAD ID: 57751 Int'l Des: 2023-131 Owner: SPXS Country: US Constellation: starlink
LEOCIRCULAR

About Starlink 30370

Description loading...

Live Position

Loading 3D Globe...

Upcoming Passes

Altitude History

Altitude vs Time

uPlot chart will show altitude changes over time

Two-Line Element Set

1 57751U 23131V 25303.60412806 -.00002224 00000-0 -14971-3 0 9992
2 57751 43.0033 146.0942 0000996 266.8772 93.1957 15.02519768120504
Epoch: Oct 30, 2025 • Age: 30 hours

Current Status

Altitude 566.8 km
Velocity 7.58 km/s
Sub-Earth Point -30.30°S, 14.15°E
Launch Date Sep 1, 2023
Age 2.1 years
Type internet

Technical Details

Classification Payload
Mass 730.00 kg
Dry Mass 700.00 kg
Total Mass 730.00 kg
Length 0.30 m
Diameter 4.10 m
Span 29.00 m
Shape Box + pan
Manufacturer SPXS
Bus Type Starlink V2M
Phase Status In Orbit
Owner/State SPXS/US

Large Constellations

Loading constellations...